Вернуться в каталог

STARLINK-11633

АктивенСвязьVLEO
NORAD 63317·PAYLOAD·🇺🇸 United States

Запущен Mar 18, 2025 с Cape Canaveral Space Force Station

Loading…

Ближайшие Пролёты (ближайшие 24 часа)

TLE

СвежийSource: CelesTrak SupGP

Эпоха: Sep 15, 2026, 02:58 UTC

1 63317C 25057L   26258.12409722 -.00047496  00000+0 -36895-3 0  2582
2 63317  43.0006 202.2750 0001613 258.8998 160.0264 15.70858580    10

Отслеживайте STARLINK-11633 в реальном времени с AllMySat

Download on the App Store